Copper Mountain, CO

9:45 AM MDT on August 18, 2017 (GMT -0600)
Copper Mountain

Weather History for KCCU - July, 2013

Change the Weather History Date:

Wednesday, July 17, 2013

  Actual Average Record
Temperature  
Mean Temperature 60 °F -  
Max Temperature 71 °F - 73 °F (2010)
Min Temperature 50 °F - 41 °F (2008)
Degree Days  
Heating Degree Days 4    
Month to date heating degree days  
Cooling Degree Days 0    
Month to date cooling degree days  
Growing Degree Days 10 (Base 50)    
Moisture  
Dew Point 42 °F    
Average Humidity 56    
Maximum Humidity 72    
Minimum Humidity 29    
Precipitation  
Precipitation 0.00 in - 0.40 in (2004)
Sea Level Pressure  
Sea Level Pressure 30.72 in    
Wind  
Wind Speed 13 mph (SW)    
Max Wind Speed 21 mph    
Max Gust Speed 26 mph    
Visibility 10 miles    
Events Rain , Thunderstorm    
T = Trace of Precipitation, MM = Missing Value Source: NWS Daily Summary

Daily Weather History Graph

Daily Weather History Graph

Search for Another Location

Airport or City:

Trip Planner

Search our weather history database for the weather conditions in past years. The results will help you decide how hot, cold, wet, or windy it might be!

Date:

Astronomy

Jul. 17, 2013 Rise Set
Actual Time 5:51 AM MDT 8:29 PM MDT
Civil Twilight 5:20 AM MDT 9:00 PM MDT
Nautical Twilight 4:41 AM MDT 9:39 PM MDT
Astronomical Twilight 3:57 AM MDT 10:23 PM MDT
Moon 3:22 PM MDT (7/17) 1:00 AM MDT (7/17)
Length of Visible Light 15h 40m
Length of Day
14h 37m
Waxing Gibbous, 68% of the Moon is Illuminated
Jul 17
Waxing Gibbous
Jul 22
Full
Jul 29
Last Quarter
Aug 6
New
Aug 14
First Quarter

Hourly Weather History & Observations

Time (MDT) Temp. Dew Point Humidity Pressure Visibility Wind Dir Wind Speed Gust Speed Precip Events Conditions
12:12 AM 51.8 °F 41.0 °F 67% 30.70 in 10.0 mi South 17.3 mph - N/A Thunderstorm Mostly Cloudy
12:32 AM 50.0 °F 37.4 °F 62% 30.70 in 10.0 mi South 18.4 mph - N/A   Mostly Cloudy
12:52 AM 50.0 °F 37.4 °F 62% 30.69 in 10.0 mi South 19.6 mph - N/A   Mostly Cloudy
1:12 AM 50.0 °F 37.4 °F 62% 30.69 in 10.0 mi South 19.6 mph - N/A   Scattered Clouds
1:32 AM 50.0 °F 37.4 °F 62% 30.69 in 10.0 mi South 18.4 mph 26.5 mph N/A   Clear
1:52 AM 51.8 °F 39.2 °F 62% 30.69 in 10.0 mi South 20.7 mph - N/A   Clear
2:12 AM 51.8 °F 39.2 °F 62% 30.69 in 10.0 mi South 15.0 mph - N/A   Clear
2:32 AM 50.0 °F 37.4 °F 62% 30.69 in 10.0 mi South 20.7 mph - N/A   Clear
2:52 AM 50.0 °F 39.2 °F 66% 30.69 in 10.0 mi South 19.6 mph - N/A   Clear
3:12 AM 51.8 °F 39.2 °F 62% 30.69 in 10.0 mi South 19.6 mph - N/A   Clear
3:32 AM 51.8 °F 39.2 °F 62% 30.69 in 10.0 mi SSW 9.2 mph 16.1 mph N/A   Clear
3:52 AM 53.6 °F 41.0 °F 62% 30.69 in 10.0 mi South 12.7 mph - N/A   Clear
4:12 AM 53.6 °F 41.0 °F 62% 30.69 in 10.0 mi South 11.5 mph - N/A   Scattered Clouds
4:32 AM 53.6 °F 41.0 °F 62% 30.69 in 10.0 mi SW 3.5 mph - N/A   Mostly Cloudy
4:52 AM 53.6 °F 41.0 °F 62% 30.70 in 10.0 mi WSW 4.6 mph - N/A   Overcast
5:12 AM 53.6 °F 41.0 °F 62% 30.70 in 10.0 mi West 12.7 mph - N/A   Scattered Clouds
5:32 AM 53.6 °F 41.0 °F 62% 30.71 in 10.0 mi West 12.7 mph - N/A   Mostly Cloudy
5:52 AM 53.6 °F 41.0 °F 62% 30.71 in 10.0 mi West 13.8 mph - N/A   Overcast
6:12 AM 53.6 °F 41.0 °F 62% 30.71 in 10.0 mi West 15.0 mph - N/A   Mostly Cloudy
6:21 AM 53.6 °F 41.0 °F 62% 30.71 in 10.0 mi West 15.0 mph - N/A   Scattered Clouds
7:12 AM 53.6 °F 42.8 °F 67% 30.72 in 10.0 mi West 13.8 mph - N/A   Overcast
7:32 AM 53.6 °F 42.8 °F 67% 30.72 in 10.0 mi West 11.5 mph - N/A   Mostly Cloudy
7:52 AM 53.6 °F 42.8 °F 67% 30.73 in 10.0 mi West 15.0 mph - N/A   Scattered Clouds
8:12 AM 53.6 °F 42.8 °F 67% 30.73 in 10.0 mi West 13.8 mph - N/A   Clear
8:32 AM 53.6 °F 42.8 °F 67% 30.74 in 10.0 mi West 10.4 mph - N/A   Clear
8:52 AM 53.6 °F 42.8 °F 67% 30.74 in 10.0 mi West 13.8 mph 17.3 mph N/A   Clear
9:12 AM 55.4 °F 42.8 °F 63% 30.74 in 10.0 mi West 10.4 mph - N/A   Clear
9:32 AM 55.4 °F 42.8 °F 63% 30.74 in 10.0 mi West 5.8 mph - N/A   Clear
9:52 AM 59.0 °F 44.6 °F 59% 30.74 in 10.0 mi West 9.2 mph - N/A   Clear
10:12 AM 59.0 °F 44.6 °F 59% 30.74 in 10.0 mi West 9.2 mph - N/A   Scattered Clouds
10:32 AM 60.8 °F 42.8 °F 52% 30.74 in 10.0 mi West 10.4 mph 16.1 mph N/A   Scattered Clouds
10:52 AM 62.6 °F 42.8 °F 48% 30.74 in 10.0 mi West 9.2 mph - N/A   Clear
11:12 AM 64.4 °F 41.0 °F 42% 30.75 in 10.0 mi West 6.9 mph - N/A   Clear
11:32 AM 64.4 °F 41.0 °F 42% 30.74 in 10.0 mi West 5.8 mph 16.1 mph N/A   Clear
11:52 AM 64.4 °F 41.0 °F 42% 30.75 in 10.0 mi NW 4.6 mph - N/A   Scattered Clouds
12:12 PM 69.8 °F 42.8 °F 38% 30.75 in 10.0 mi NW 5.8 mph - N/A   Scattered Clouds
12:32 PM 68.0 °F 37.4 °F 33% 30.75 in 10.0 mi West 9.2 mph - N/A   Clear
12:52 PM 71.6 °F 37.4 °F 29% 30.74 in 10.0 mi WNW 5.8 mph - N/A   Clear
1:12 PM 69.8 °F 39.2 °F 33% 30.73 in 10.0 mi NW 4.6 mph - N/A   Scattered Clouds
1:32 PM 66.2 °F 41.0 °F 40% 30.73 in 10.0 mi East 8.1 mph - N/A Thunderstorm Thunderstorm
1:52 PM 64.4 °F 42.8 °F 45% 30.74 in 10.0 mi North 4.6 mph - N/A Thunderstorm Scattered Clouds
2:12 PM 64.4 °F 42.8 °F 45% 30.74 in 10.0 mi NE 5.8 mph - N/A Thunderstorm Thunderstorm
2:32 PM 64.4 °F 44.6 °F 49% 30.73 in 10.0 mi East 5.8 mph 16.1 mph N/A Thunderstorm Thunderstorm
2:52 PM 60.8 °F 44.6 °F 55% 30.74 in 10.0 mi SSE 9.2 mph - N/A Rain , Thunderstorm Light Thunderstorms and Rain
3:12 PM 60.8 °F 44.6 °F 55% 30.73 in 10.0 mi SSE 8.1 mph - N/A Thunderstorm Thunderstorm
3:32 PM 60.8 °F 42.8 °F 52% 30.74 in 10.0 mi ESE 4.6 mph - N/A Thunderstorm Thunderstorm
3:52 PM 64.4 °F 42.8 °F 45% 30.73 in 10.0 mi SE 5.8 mph - N/A Thunderstorm Overcast
4:12 PM 60.8 °F 42.8 °F 52% 30.74 in 10.0 mi SSE 5.8 mph - N/A Thunderstorm Thunderstorm
4:32 PM 64.4 °F 42.8 °F 45% 30.74 in 10.0 mi SSE 5.8 mph - N/A Thunderstorm Scattered Clouds
4:52 PM 62.6 °F 41.0 °F 45% 30.73 in 10.0 mi SW 4.6 mph - N/A Thunderstorm Thunderstorm
5:12 PM 60.8 °F 42.8 °F 52% 30.72 in 10.0 mi WNW 5.8 mph - N/A Thunderstorm Scattered Clouds
5:32 PM 60.8 °F 44.6 °F 55% 30.73 in 10.0 mi West 4.6 mph - N/A Thunderstorm Scattered Clouds
5:52 PM 60.8 °F 41.0 °F 48% 30.72 in 10.0 mi NW 5.8 mph - N/A Thunderstorm Thunderstorm
6:12 PM 60.8 °F 42.8 °F 52% 30.72 in 10.0 mi Calm Calm - N/A Thunderstorm Thunderstorm
6:32 PM 60.8 °F 42.8 °F 52% 30.72 in 10.0 mi NW 4.6 mph - N/A Thunderstorm Scattered Clouds
6:52 PM 60.8 °F 42.8 °F 52% 30.72 in 10.0 mi NE 5.8 mph - N/A   Mostly Cloudy
7:12 PM 59.0 °F 42.8 °F 55% 30.72 in 10.0 mi Calm Calm - N/A   Mostly Cloudy
7:32 PM 59.0 °F 41.0 °F 51% 30.73 in 10.0 mi SSE 5.8 mph - N/A Thunderstorm Scattered Clouds
7:52 PM 59.0 °F 42.8 °F 55% 30.73 in 10.0 mi South 9.2 mph - N/A   Clear
8:12 PM 59.0 °F 41.0 °F 51% 30.73 in 10.0 mi South 11.5 mph - N/A   Clear
8:32 PM 59.0 °F 42.8 °F 55% 30.73 in 10.0 mi South 13.8 mph - N/A   Clear
8:52 PM 59.0 °F 42.8 °F 55% 30.73 in 10.0 mi South 16.1 mph - N/A   Clear
9:12 PM 59.0 °F 41.0 °F 51% 30.73 in 10.0 mi South 19.6 mph - N/A   Clear
9:32 PM 55.4 °F 42.8 °F 63% 30.74 in 10.0 mi West 12.7 mph - N/A   Scattered Clouds
9:52 PM 55.4 °F 42.8 °F 63% 30.75 in 10.0 mi West 11.5 mph - N/A   Scattered Clouds
10:12 PM 55.4 °F 44.6 °F 67% 30.75 in 10.0 mi West 11.5 mph - N/A   Clear
10:32 PM 53.6 °F 44.6 °F 72% 30.75 in 10.0 mi West 9.2 mph - N/A   Clear
10:52 PM 55.4 °F 41.0 °F 58% 30.75 in 10.0 mi South 9.2 mph - N/A Thunderstorm Clear
11:12 PM 55.4 °F 41.0 °F 58% 30.75 in 10.0 mi SSW 6.9 mph - N/A Thunderstorm Clear
11:32 PM 55.4 °F 41.0 °F 58% 30.75 in 10.0 mi South 12.7 mph - N/A   Clear
11:52 PM 53.6 °F 41.0 °F 62% 30.75 in 10.0 mi WSW 5.8 mph - N/A   Clear